Location: ??
(35.5653°N, 139.6194°E)
Time: 21:09:33
(UTC+00:00)

Cosmos 1408 - Pass Details

Date: 20 November 2019
Orbit: 470 x 497 km, 82.6° (Epoch: 09 December)

Event Time Altitude Azimuth Distance (km) Brightness Sun altitude
Rises 19:32:14 0° 188° (S) 2,559 6.2 -22.2°
Reaches altitude 10° 19:34:20 10° 190° (S) 1,679 5.3 -21.8°
Enters shadow 19:36:13 29° 194° (SSW) 932 3.9 -21.4°
Exits shadow 19:40:29 20° 2° (N) 1,188 4.4 -20.6°
Drops below altitude 10° 19:41:41 10° 4° (N) 1,678 5.2 -20.3°
Sets 19:43:48 0° 5° (N) 2,558 6.2 -19.9°
